Погода Лиепая

Погода Лиепая : погода сейчас, прогноз погоды и архив. Всё, что Вы хотите узнать о погоде Лиепая!

Поиск расширенной информации на нашем сайте:

Другие новости

Новости СМИ2

Главная страница сайта

Новости сайта

02.10.2013

Напоминаем, что на нашем новом сайте вы можете получить высокодетализированные прогнозы погоды по пунктам России, СНГ и мира (включающие важные для авиации метеовеличины, такие как направление и скорость ветра, видимость, явления погоды, количество и форма облачности, нижняя и верхняя граница облачности), а также ознакомиться с разнообразными материалами по авиационной метеорологии и подборкой полезных ссылок на эту тему.

Сайт Метеоцентр.Азия посвящён разработке технологий оптимизации авиаметеорологического обслуживания, включая проектирование и перспективное создание нескольких автоматизированных авиаметеорологических систем:
- система выпуска высокодетальных прогностических карт явлений погоды для нижнего воздушного пространства по России и ближнему зарубежью;
- система верификации прогнозов TAF (выпускаемых синоптиками официальных АМСГ РФ и ближнего зарубежья) и AUTOTAF (выпускаемых сайтом Метеоцентр.Азия) - выявление ошибок, онлайн-сопоставление с фактической погодой METAR, автоматическое внесение коррективов в прогнозы при резком отклонении фактической погоды от прогноза, подсчёт оправдываемости прогнозов по элементам и в целом;
- система обработки, анализа и отображения авиаметеорологической информации для применения провайдерами метеорологической информации.

Рекомендуем: Доставка бетона в самаре Наша компания занимается собственным производством бетона всех марок

Погода Лиепая - сегодня

Время (UTC), дата Ветер
(°,м/с) 
Видим.   Явления Облачность Т
(°С)
Тd
(°С)
f(%) Тe
(°С)
Pmin
(гПа)
dP
(гПа)
Po
(мм)
O2
(г/м3)
Тmin Tmax R s Состояние
почвы
06 17.02.17 230 (ЮЗ) 5{10}  0500 м  туман  ?/?  
+2.2 +2.1 99 1013.5  -0.6  759  302  +2.1         
09 17.02.17 220 (ЮЗ) 3200 м  дымка  10/10 240 м 
[St]
+2.4 +2.3 99 1013.7  0.2  760  302           
12 17.02.17 230 (ЮЗ) 0900 м  слаб. морось{туман}  ?/?  
+2.4 +2.3 99 1013.9  0.2  760  303           
15 17.02.17 240 (ЮЗ) 1900 м  дымка{морось, туман}  10/10 180 м 
[St]
+2 +1.9 99 +1  1013.8  -0.1  760  303           
18 17.02.17 250 (З) 0500 м  туман{морось}  ?/?  
+2.4 +2.3 99 +1  1014.9  1.1  761  303    +2.7  0.4     
21 17.02.17 280 (З) 1000 м  дымка{туман}  10/10 180 м 
[St]
+2.3 +2.2 99 +3  1015.9  761  303           
00 18.02.17 300 (СЗ) 2000 м  слаб. морось{туман}  10/10 180 м 
[St]
+0.8 +0.7 99 1016.7  0.8  762  306           
03 18.02.17 290 (З) 0500 м  слаб. морось{туман}  ?/?  
+0.6 +0.5 99 1017.2  0.5  762  306           
06 18.02.17 260 (З) 0900 м  туман{морось}  ?/?  
+1.2 +1.1 99 +2  1018.2  763  305  +0.5    0.1     
09 18.02.17 240 (ЮЗ) 0300 м  слаб. морось{туман}  ?/?  
+0.8 +0.7 99 1019.2  764  306           
12 18.02.17 220 (ЮЗ) 0200 м  слаб. морось{туман}  ?/?  
+0.5 +0.4 99 -1  1019.4  0.2  764  307           
15 18.02.17 230 (ЮЗ) 0400 м  слаб. морось{туман}  ?/?  
+0.3 +0.2 99 -2  1018.9  -0.5  764  307           
18 18.02.17 220 (ЮЗ) 0500 м  слаб. морось{туман}  ?/?  
+1.2 +1.1 99 -1  1018.4  -0.5  763  305    +1.2  0.1     
21 18.02.17 220 (ЮЗ) 5{10}  4000 м  дымка{морось, туман}  10/10 180 м 
[St]
+1.4 +1.3 99 -1  1016.9  -1.5  762  305           
00 19.02.17 230 (ЮЗ) 7-12{13}  4000 м  дымка{морось, туман}  10/10 150 м 
[St]
+1.3 +1.2 99 -2  1016  -0.9  762  305           
03 19.02.17 220 (ЮЗ) 6-10{12}  4000 м  дымка  10/10 360 м 
[St]
+2.3 +1.4 94 -1  1013.6  -2.4  760  303           
06 19.02.17 210 (ЮЗ) 8-11{14}  4000 м  слаб. дождь  10/10 240 м 
[Frnb|Ns]
+2.4 +2.2 99 -1  1011.4  -2.2  758  302  +1.2    0.3     
09 19.02.17 220 (ЮЗ) 7-12{12}  3100 м  дымка{дождь}  10/10 210 м 
[St]
+2.8 +2.3 97 -1  1010.6  -0.8  757  301           
12 19.02.17 230 (ЮЗ) 7-12{13}  2800 м  дымка{дождь, морось}  10/10 180 м 
[St]
+2.9 +2.4 97 1009.7  -0.9  757  301           
15 19.02.17 230 (ЮЗ) 7-10{12}  1300 м  дымка  10/10 150 м 
[St]
+2.7 +2.3 97 -1  1008.5  -1.2  756  301           
18 19.02.17 230 (ЮЗ) 7-11{12}  1000 м  в посл. час дождь  10/10 120 м 
[St]
+2.8 +2.7 99 -1  1007.5  -1  755  300    +3  0.9     
21 19.02.17 240 (ЮЗ) 6-10{12}  1000 м  слаб. морось{туман}  10/10 120 м 
[St]
+2.7 +2.6 99 1007.9  0.4  755  300           
00 20.02.17 230 (ЮЗ) 6{12}  0500 м  туман{морось}  ?/?  
+2.7 +2.6 99 1006.5  -1.4  754  301           
03 20.02.17 210 (ЮЗ) 7-10{11}  1000 м  дымка{туман}  10/10 120 м 
[St]
+2.9 +2.8 99 1004.3  -2.2  753  299           
06 20.02.17 230 (ЮЗ) 8-13{15}  4000 м  в посл. час морось{туман}  10/10 210 м 
[St]
+3.3 +2.9 97 1001.9  -2.4  751  298  +2.5    0.0     
Время (UTC), дата Ветер
(°,м/с) 
Видим.   Явления Облачность Т
(°С)
Тd
(°С)
f(%) Тe
(°С)
Pmin
(гПа)
dP
(гПа)
Po
(мм)
O2
(г/м3)
Тmin Tmax R s Состояние
почвы

Для получения пояснительной информации подведите курсор к названию столбца.

ПОГОДА Лиепая - архив

Всё, что Вы хотите узнать о погоде Лиепая - удобно и подробно!

Выберите нужную дату (начиная с 1 января 2015* года) и нажмите кнопку "Найти".
Будут отображены архивные сводки погоды по пункту Лиепая, начиная с указанной даты.


Отображать данные в формате CSV (для использования в таблицах Excel)


Внимание! Наш архив погоды предназначен исключительно для личного некоммерческого использования в познавательных целях. Если Вам необходимы официальные справки о состоянии погоды (для производственных, юридических, коммерческих и т.п. целей), обращайтесь в органы Росгидромета.

*Примечание: данная дата относится к архиву по метеостанциям СССР (Россия, СНГ, Балтия).
Архив по метеостанциям Зарубежной Европы и Азии (кроме Китая) хранится 10 дней, по другим регионам земного шара (Китай, Африка, Америка, Австралия, Океания) - 1 день.

Лиепая - район местоположения метеостанции


Название, широта, долгота, высота метеостанции:
Лиепая 56.5°ш. 21°д. 7 м над ур. моря [Латвия]

Дополнительная информация

В oтличие oт бoльшинства пoгoдных сайтoв мы публикуем пoдрoбную метеoинфoрмацию в детальнoм прoфессиoнальнoм фoрмате.

Характеристики температуры и влажнoсти вoздуха измеряются на высoте 2 м в тени вдали oт зданий и деревьев.
Скoрoсть ветра измеряется на высoте 10 м (на урoвне рoста челoвека скoрoсть ветра ниже в 1.5-2 раза). Если метеoстанция нахoдится в гoрoде или в лесу, тo скoрoсть ветра занижена на 2-4 м/с пo сравнению с oткрытым местoм. Скoрoсть ветра над акватoриями крупных рек и oзёр, а также на вершинах хoлмoв на 2-5 м/с выше, чем в oбычных услoвиях.
Атмoсфернoе давление в разных тoчках местнoсти мoжет значительнo oтличаться oт давления на метеoстанции, в зависимoсти oт услoвий рельефа (при пoдъёме на 10 м давление пoнижается примернo на 1 мм рт.ст.).